Tracking 29510 objects as of 15-Sep-2024
HD Live streaming from Space Station
objects crossing your sky now

STARLINK-4108

Track STARLINK-4108 now!
10-day predictions
STARLINK-4108 is classified as:


NORAD ID: 52834
Int'l Code: 2022-062E
Perigee: 545.9 km
Apogee: 548.0 km
Inclination: 53.2 °
Period: 95.4 minutes
Semi major axis: 6917 km
RCS: Unknown
Launch date: June 17, 2022
Source: United States (US)
Launch site: AIR FORCE EASTERN TEST RANGE (AFETR)
Your satellite tracking list
Your tracking list is empty




NASA's NSSDC Master Catalog

Two Line Element Set (TLE):
1 52834U 22062E   24259.10969796 -.00003624  00000-0 -20983-3 0  9995
2 52834  53.2165 300.8801 0001497  81.6750 278.4412 15.08823452124175
Source of the keplerian elements: AFSPC